Back to catalog

COSMOS 839 DEB

AliveUNKNOWN
NORAD 10614·DEBRIS·🇷🇺 Russia

Launched Jul 8, 1976 from Plesetsk Cosmodrome

Loading…

Next Passes (next 24 hours)

TLE

FreshSource: Space-Track

Epoch: Sep 14, 2026, 04:11 UTC

1 10614U 76067AN  26257.17463087  .00000198  00000-0  72285-3 0  9991
2 10614  65.7318 149.3471 0730405 140.8635  18.1083 12.42099193271077

Track COSMOS 839 DEB in real time with AllMySat

Download on the App Store